Louisville Bowman, KY

9:04 PM EDT on May 23, 2017 (GMT -0400)
Bowman

Weather History for KLOU - January, 2003

Change the Weather History Date:

Friday, January 3, 2003

  Actual Average Record
Temperature  
Mean Temperature 30 °F 35 °F  
Max Temperature 33 °F 43 °F 71 °F (1997)
Min Temperature 28 °F 27 °F 5 °F (1979)
Degree Days  
Heating Degree Days 34 30  
Month to date heating degree days 90  
Since 1 July heating degree days 1754  
Cooling Degree Days 0 0  
Month to date cooling degree days 0  
Year to date cooling degree days 0  
Moisture  
Dew Point 24 °F    
Average Humidity 77    
Maximum Humidity 96    
Minimum Humidity 60    
Precipitation  
Precipitation 0.00 in 0.12 in 1.53 in (1951)
Month to date precipitation 0.39  
Year to date precipitation 0.39  
Sea Level Pressure  
Sea Level Pressure 30.05 in    
Wind  
Wind Speed 8 mph (NW)    
Max Wind Speed 13 mph    
Max Gust Speed -    
Visibility 9 miles    
Events Snow    
T = Trace of Precipitation, MM = Missing Value Source: NWS Daily Summary

Daily Weather History Graph

Daily Weather History Graph

Search for Another Location

Airport or City:

Trip Planner

Search our weather history database for the weather conditions in past years. The results will help you decide how hot, cold, wet, or windy it might be!

Date:

Astronomy

Jan. 03, 2003 Rise Set
Actual Time 7:59 AM EST 5:34 PM EST
Civil Twilight 7:30 AM EST 6:04 PM EST
Nautical Twilight 6:57 AM EST 6:37 PM EST
Astronomical Twilight 6:25 AM EST 7:09 PM EST
Moon 8:57 AM EST (1/3) 6:26 PM EST (1/3)
Length of Visible Light 10h 33m
Length of Day
9h 35m
New Moon, 1% of the Moon is Illuminated
Jan 3
New Moon
Jan 10
First Quarter
Jan 18
Full
Jan 25
Last Quarter
Feb 1
New

Hourly Weather History & Observations

Time (EST) Temp. Windchill Dew Point Humidity Pressure Visibility Wind Dir Wind Speed Gust Speed Precip Events Conditions
12:18 AM 33.8 °F 27.7 °F 32.0 °F 93% 29.89 in 7.0 mi NNW 6.9 mph - 0.00 in   Overcast
12:25 AM 33.8 °F 28.6 °F 32.0 °F 93% 29.89 in 8.0 mi NNW 5.8 mph - 0.00 in   Overcast
12:53 AM 33.1 °F 27.7 °F 30.9 °F 92% 29.91 in 8.0 mi NNW 5.8 mph - 0.00 in   Overcast
1:53 AM 32.0 °F 27.5 °F 30.9 °F 96% 29.93 in 8.0 mi North 4.6 mph - N/A   Overcast
2:53 AM 32.0 °F 24.8 °F 30.0 °F 92% 29.95 in 9.0 mi NW 8.1 mph - N/A   Overcast
3:53 AM 30.9 °F 23.5 °F 28.0 °F 89% 29.99 in 10.0 mi WNW 8.1 mph - N/A   Overcast
4:53 AM 30.0 °F 20.5 °F 25.0 °F 82% 30.00 in 10.0 mi NW 11.5 mph - N/A   Overcast
5:14 AM 30.2 °F 21.3 °F 24.8 °F 80% 29.98 in 6.0 mi NW 10.4 mph - 0.00 in Snow Light Snow
5:53 AM 28.9 °F 19.2 °F 23.0 °F 78% 30.00 in 10.0 mi NW 11.5 mph - 0.00 in   Overcast
6:53 AM 28.9 °F 20.4 °F 24.1 °F 82% 30.03 in 10.0 mi NW 9.2 mph - 0.00 in   Overcast
7:26 AM 28.4 °F 19.7 °F 21.2 °F 74% 30.02 in 10.0 mi NNW 9.2 mph - N/A   Overcast
7:53 AM 28.9 °F 21.1 °F 23.0 °F 78% 30.05 in 10.0 mi NW 8.1 mph - N/A   Overcast
8:01 AM 28.4 °F 20.4 °F 23.0 °F 80% 30.04 in 10.0 mi NW 8.1 mph - N/A   Overcast
8:17 AM 28.4 °F 21.2 °F 23.0 °F 80% 30.04 in 10.0 mi NNW 6.9 mph - N/A   Overcast
8:53 AM 28.9 °F 21.1 °F 21.9 °F 75% 30.07 in 10.0 mi NNW 8.1 mph - N/A   Overcast
9:53 AM 28.9 °F 21.9 °F 21.9 °F 75% 30.09 in 10.0 mi NW 6.9 mph - N/A   Overcast
10:53 AM 28.9 °F 19.8 °F 21.9 °F 75% 30.09 in 10.0 mi NW 10.4 mph - N/A   Overcast
11:53 AM 30.0 °F 21.7 °F 23.0 °F 75% 30.08 in 9.0 mi NNW 9.2 mph - N/A   Overcast
12:16 PM 30.2 °F 23.4 °F 26.6 °F 86% 30.05 in 2.5 mi NW 6.9 mph - 0.00 in Snow Light Snow
12:23 PM 30.2 °F 22.6 °F 26.6 °F 86% 30.05 in 5.0 mi NW 8.1 mph - 0.00 in   Overcast
12:53 PM 30.9 °F 22.2 °F 24.1 °F 76% 30.06 in 10.0 mi NW 10.4 mph - 0.00 in   Overcast
1:13 PM 32.0 °F 23.0 °F 24.8 °F 75% 30.04 in 10.0 mi NW 11.5 mph - N/A   Overcast
1:25 PM 32.0 °F 23.0 °F 23.0 °F 69% 30.04 in 10.0 mi NW 11.5 mph - N/A   Overcast
1:53 PM 30.9 °F 21.7 °F 21.9 °F 69% 30.05 in 10.0 mi WNW 11.5 mph - N/A   Overcast
2:21 PM 32.0 °F 24.2 °F 21.2 °F 64% 30.04 in 10.0 mi NW 9.2 mph - N/A   Overcast
2:53 PM 33.1 °F 24.4 °F 21.9 °F 64% 30.06 in 7.0 mi NW 11.5 mph - N/A   Overcast
3:00 PM 33.8 °F 25.3 °F 21.2 °F 60% 30.05 in 10.0 mi NW 11.5 mph - N/A   Overcast
3:53 PM 32.0 °F 24.8 °F 25.0 °F 75% 30.07 in 10.0 mi NW 8.1 mph - N/A   Overcast
4:53 PM 32.0 °F 24.2 °F 21.9 °F 66% 30.09 in 10.0 mi NW 9.2 mph - N/A   Overcast
5:53 PM 30.9 °F 21.2 °F 23.0 °F 72% 30.11 in 10.0 mi WNW 12.7 mph - N/A   Overcast
6:53 PM 30.9 °F 25.2 °F 23.0 °F 72% 30.11 in 10.0 mi West 5.8 mph - N/A   Overcast
7:53 PM 30.9 °F 24.3 °F 23.0 °F 72% 30.12 in 10.0 mi West 6.9 mph - N/A   Overcast
8:53 PM 30.9 °F 21.2 °F 23.0 °F 72% 30.14 in 10.0 mi WNW 12.7 mph - N/A   Overcast
9:53 PM 30.0 °F 21.1 °F 21.9 °F 72% 30.16 in 10.0 mi NW 10.4 mph - N/A   Overcast
10:36 PM 30.2 °F 22.6 °F 21.2 °F 69% 30.13 in 10.0 mi NW 8.1 mph - N/A   Overcast
10:45 PM 30.2 °F 23.4 °F 21.2 °F 69% 30.12 in 10.0 mi WNW 6.9 mph - N/A   Overcast
10:53 PM 30.0 °F 21.7 °F 19.9 °F 66% 30.14 in 10.0 mi WNW 9.2 mph - N/A   Overcast
11:53 PM 30.0 °F 22.4 °F 19.9 °F 66% 30.14 in 10.0 mi West 8.1 mph - N/A   Overcast